Location: Nebula Knoll Observatory
(43.6666°N, 71.0000°W)
Time: 01:27:08
(UTC-04:00)

Cosmos 1782 - Visible Passes

Search period start: 28 August 2015 00:00
Search period end: 07 September 2015 00:00
Orbit: 541 x 560 km, 82.5° (Epoch: 27 August)

Date Brightness Start Highest point End Pass type
(mag) Time Alt. Az. Time Alt. Az. Time Alt. Az.
28 Aug 4.1 05:03:56 10° SSE 05:07:42 43° E 05:11:30 10° NNE visible
29 Aug 3.9 04:59:44 10° SSE 05:03:33 47° E 05:07:24 10° NNE visible
30 Aug 3.6 04:55:32 10° S 04:59:24 52° E 05:03:17 10° NNE visible
31 Aug 3.4 04:51:22 10° S 04:55:15 58° E 04:59:11 10° NNE visible
01 Sep 3.2 04:47:10 10° S 04:51:06 65° E 04:55:04 10° NNE visible
02 Sep 3.0 04:43:00 10° S 04:46:57 72° E 04:50:56 10° NNE visible
03 Sep 2.8 04:39:12 12° S 04:42:49 80° E 04:46:48 10° N visible
04 Sep 2.7 04:35:50 19° S 04:38:40 88° E 04:42:40 10° N visible
05 Sep 2.7 04:32:25 27° SSW 04:34:31 84° W 04:38:31 10° N visible
06 Sep 2.7 04:28:55 38° SSW 04:30:22 76° W 04:34:22 10° N visible
